星链-35709(STARLINK-35709)

导读 | 豆包AI

STARLINK-35709是美国SpaceX星链星座的卫星,于2025年10月28日发射入轨,属于星链低轨互联网星座扩容部署的组成部分。它延续了星链卫星的设计,通过低轨道布局提供全球覆盖的宽带互联网服务,支撑星链在通信、导航等领域的服务能力拓展,也延续了星链部署对全球航天轨道资源利用、天文观测的相关讨论。

基本信息
目录编号:
66216
目录名称:
STARLINK-35709
国际标识:
2025-244L
轨道中心:
EARTH
卫星名称:
星链-35709
卫星全名:
星链-35709(STARLINK-35709)
卫星状态:
在轨 (已飞行185 天)
发射日期:
2025-10-28 UTC
国别 :
美国 (US)
星等 :
--
轨道信息
数据来源 国际轨道数据
星历时间: 2026-05-01T04:27:28+0800
8小时前
查看轨道信息
半长轴: 6853.327km
偏心率: 0.0000942
轨道倾角: 53.158°
近地点辐角 68.484°
升交点赤经 347.777°
平近点角 291.627°
近地点: 474.544km
远地点: 475.836km
周期: 94.105分钟
每日圈数: 15.302084
详细信息
固有亮度:
5
最大亮度:
2.5
卫星平台:
Starlink V1.0
覆盖范围:
全球
运营商:
太空探索技术公司
运营商所在国:
美国
制造商(研发单位):
太空探索技术公司
制造商所在国:
美国
使用方式:
暂无
卫星简介
Starlink 计划是 SpaceX 推出的全球卫星互联网项目,通过发射低轨道卫星,为全球尤其是偏远地区提供高速、低延迟的互联网服务。自 2019 年起,Starlink 已部署数千颗卫星,旨在缩小全球数字鸿沟,推动互联网普及。该项目还为军事、航空等行业提供通信支持,带来广泛经济效益。
2D轨道图
3D轨道图
轨道高度分析图
轨道倾角分析图
轨道综合分析图
查看轨道综合分析图